943  
ASUS43 KDTX 230310  
RWRMI  
MICHIGAN HOURLY REGIONAL WEATHER ROUNDUP  
NATIONAL WEATHER SERVICE DETROIT/PONTIAC MI  
1000 PM EST THU FEB 22 2024  
 
NOTE: "FAIR" INDICATES FEW OR NO CLOUDS BELOW 12,000 FEET WITH NO  
SIGNIFICANT WEATHER AND/OR TO VISIBILITY
.  
 
MIZ047>049-052>055-059>063-066>070-074>076-081>083-230400-  
SOUTHEAST LOWER MICHIGAN  
 
CITY SKY/WX TMP DP RH WIND PRES REMARKS
 
ADRIAN PTCLDY 39 37 92 CALM 29.65R FOG TC 4  
ALMA CLEAR 35 31 87 SW3 29.62F TC 1  
ANN ARBOR PTCLDY 34 30 85 CALM 29.63S TC 1  
BAD AXE CLEAR 36 32 87 S3 29.59F TC 2  
CARO CLEAR 32 31 96 CALM 29.60F FOG TC 0  
DETROIT CITY PTCLDY 43 34 70 CALM 29.62F TC 6  
DETROIT PTCLDY 40 36 86 S6 29.63F TC 4  
FLINT CLEAR 33 30 88 S3 29.63S TC 1  
GROSSE ILE PTCLDY 34 30 85 CALM 29.63S FOG TC 1  
HILLSDALE PTCLDY 36 33 87 CALM 29.64S TC 2  
HOWELL CLEAR 35 31 86 CALM 29.63F TC 1  
 
CITY SKY/WX TMP DP RH WIND PRES REMARKS
 
JACKSON CLEAR 35 29 78 CALM 29.64S TC 2  
LAMBERTVILLE FOG 36 35 96 CALM 29.64S VSB 1/4 TC 2  
LANSING CLEAR 37 31 78 CALM 29.63F TC 3  
LAPEER CLEAR 31 28 88 S7 29.61F WCI 25 TC 0  
MASON CLEAR 34 30 86 CALM 29.62F TC 1  
MONROE FOG 36 34 94 CALM 29.64R VSB 1/4 TC 2  
MT. CLEMENS PTCLDY 38 32 77 CALM 29.59F TC 4  
PONTIAC MOCLDY 36 29 75 CALM 29.61F TC 2  
PORT HOPE N/A 33 30 88 CALM 29.57F TC 1  
PORT HURON PTCLDY 30 28 93 CALM 29.62F FOG TC -1  
TRI CITIES CLEAR 42 32 67 SW8 29.60F TC 6  
MIDLAND CLEAR 33 30 90 CALM 29.60S TC 1  
TROY CLEAR 42 32 67 CALM 29.64F TC 6  
SAGINAW HB CLEAR 37 34 87 SW8 29.59F WCI 31 TC 3  

 
MIZ043>046-050>051-056>058-064>065-071>073-077>080-230400-  
SOUTHWEST LOWER MICHIGAN  
 
CITY SKY/WX TMP DP RH WIND PRES REMARKS
 
BATTLE CREEK CLEAR 40 30 67 SW3 29.65S TC 4  
BENTON HARBOR PTCLDY 36 32 85 CALM 29.66F TC 2  
BIG RAPIDS CLEAR 37 20 52 CALM 29.60F TC 3  
COLDWATER PTCLDY 35 32 87 SW3 29.65S TC 2  
FREMONT CLEAR 37 19 46 CALM 29.62F TC 3  
HOLLAND CLEAR 34 27 75 SW3 29.65F TC 1  
GRAND RAPIDS PTCLDY 40 25 55 SW6 29.64S TC 4  
IONIA CLEAR 41 27 56 W8 29.62F TC 5  
KALAMAZOO CLEAR 42 24 49 CALM 29.65F TC 6  
LUDINGTON CLEAR 43 31 62 SW10 29.60F TC 6  
MARSHALL CLEAR 34 28 80 CALM 29.64S TC 1  
MOUNT PLEASANT CLEAR 38 28 67 SW3 29.60F TC 4  
MUSKEGON PTCLDY 36 28 73 S6 29.64S WCI 31 TC 2  
SOUTH HAVEN PTCLDY 32 30 94 CALM 29.66F TC 0  

 
MIZ016>042-230400-  
NORTHERN LOWER MICHIGAN  
 
CITY SKY/WX TMP DP RH WIND PRES REMARKS
 
ALPENA CLOUDY 34 29 82 CALM 29.57F TC 1  
BEAVER ISLAND PTCLDY 36 31 84 SW8 29.56F WCI 29 TC 2  
BELLAIRE CLEAR 31 29 92 CALM 29.58F TC 0  
CADILLAC CLEAR 32 21 64 SW2 29.58F TC 0  
CHARLEVOIX CLOUDY 32 31 96 CALM 29.57F TC 0  
CHEBOYGAN CLOUDY 36 28 75 CALM 29.54F TC 2  
FRANKFORT CLEAR 39 29 67 CALM 29.59F TC 4  
GAYLORD PTCLDY 34 26 72 CALM 29.56F TC 1  
GRAYLING CLEAR 27 26 93 CALM 29.55F TC -3  
HARBOR SPRINGS CLOUDY 33 32 96 CALM 29.56F TC 1  
HOUGHTON LAKE CLEAR 32 25 75 CALM 29.58S TC 0  
MANISTEE CLEAR 29 27 92 E3 29.59F TC -2  
OSCODA PTCLDY 30 29 94 W3 29.58F TC -1  
PELLSTON CLOUDY 37 28 70 SW3 29.56F TC 3  
ROGERS CITY CLOUDY 38 30 73 S6 29.57F WCI 34 TC 3  
TRAVERSE CITY CLEAR 40 27 59 S5 29.56F TC 4  

 
MIZ007>008-015-230400-  
EASTERN UPPER MICHIGAN  
 
CITY SKY/WX TMP DP RH WIND PRES REMARKS
 
KINROSS CLOUDY 35 27 72 SW3 29.55F TC 2  
MACKINAC ISLAN CLOUDY 34 32 94 W6 29.56F WCI 29 TC 1  
NEWBERRY PTCLDY 33 27 80 SW6 29.55S WCI 27 TC 0  
S. S. MARIE CLOUDY 38 26 62 SW7 29.53S WCI 33 TC 3  

 
MIZ004>006-011>014-085-230400-  
CENTRAL UPPER MICHIGAN  
 
CITY SKY/WX TMP DP RH WIND PRES REMARKS
 
MANISTIQUE FOG 30 30 100 CALM 29.57R VSB 3/4 TC -1  
ESCANABA CLEAR 30 30 100 NW5 29.59R WCI 25 TC -1  
MENOMINEE CLEAR 43 28 55 NW6 29.60R TC 6  
SAWYER-GWINN CLEAR 37 27 65 W6 29.56F WCI 33 TC 3  
MUNISING N/A 41 27 57 SW5 29.55F TC 5  

 
MIZ001>003-009>011-084-230400-  
WESTERN UPPER MICHIGAN  
 
CITY SKY/WX TMP DP RH WIND PRES REMARKS
 
IRON MOUNTAIN CLEAR 39 27 62 NW7 29.58S WCI 34 TC 4  
HOUGHTON PTCLDY 40 26 57 W13 29.54S WCI 32 TC 4  
COPPER HARBOR N/A 44 26 49 N18G37 29.52F TC 7  
IRONWOOD CLEAR 39 24 55 W13 29.63S WCI 31 TC 4  

 
 
ABBREVIATIONS USED IN REMARKS  
TC - TEMPERATURE IN CELSIUS  
WCI - WIND CHILL INDEX  
HX - HEAT INDEX  
VSB - VISIBILITY  
 
 
 
CLICK HERE TO GO TO PREVIOUS BULLETINS.

The Nexlab MI Page Main Text Page